Tracking 28790 objects as of 19-Apr-2024
HD Live streaming from Space Station
objects crossing your sky now

ONEWEB-0359

Track ONEWEB-0359 now!
10-day predictions
ONEWEB-0359 is classified as:


NORAD ID: 49285
Int'l Code: 2021-090G
Perigee: 1,187.0 km
Apogee: 1,190.8 km
Inclination: 87.9 °
Period: 109.0 minutes
Semi major axis: 7559 km
RCS: Unknown
Launch date: October 14, 2021
Source: United Kingdom (UK)
Launch site: VOSTOCHNY COSMODROME (VOSTO)
Your satellite tracking list
Your tracking list is empty




NASA's NSSDC Master Catalog

Two Line Element Set (TLE):
1 49285U 21090G   24109.94300953  .00000084  00000-0  17389-3 0  9992
2 49285  87.9177  71.4871 0002501  90.1600 269.9820 13.20773971126354
Source of the keplerian elements: AFSPC